Location: Newark
(40.4667°N, 5.6000°W)
Time: 23:34:59
(UTC+00:00)

Tiros 1 - Visible Passes

Search period start: 11 November 2019 00:00
Search period end: 21 November 2019 00:00
Orbit: 630 x 664 km, 48.4° (Epoch: 11 November)

Date Brightness Start Highest point End Pass type
(mag) Time Alt. Az. Time Alt. Az. Time Alt. Az.
11 Nov 7.8 18:36:57 10° W 18:41:25 46° NNW 18:43:35 27° NE visible
11 Nov 9.8 20:20:14 10° WNW 20:21:15 15° NW 20:21:15 15° NW visible
12 Nov 8.2 19:03:35 10° WNW 19:07:49 34° N 19:08:30 32° N visible
13 Nov 7.8 17:46:53 10° W 17:51:22 48° NNW 17:55:45 11° NE visible
13 Nov 8.6 19:30:10 10° WNW 19:33:25 28° NNW 19:33:25 28° NNW visible
14 Nov 8.2 18:13:30 10° WNW 18:17:45 34° N 18:20:39 18° NE visible
14 Nov 9.3 19:56:33 10° NW 19:58:18 20° NW 19:58:18 20° NW visible
15 Nov 8.3 18:40:07 10° WNW 18:44:14 30° N 18:45:33 26° NNE visible
15 Nov 10.0 20:22:42 10° NW 20:23:12 13° NW 20:23:12 13° NW visible
16 Nov 8.2 19:06:31 10° NW 19:10:27 32° N 19:10:27 32° N visible
17 Nov 8.3 17:50:02 10° WNW 17:54:10 30° N 17:57:44 13° NE visible
17 Nov 8.6 19:32:41 10° NW 19:35:24 30° NNW 19:35:24 30° NNW visible
18 Nov 8.1 18:16:29 10° WNW 18:20:39 32° N 18:22:43 22° NE visible
18 Nov 9.3 19:58:44 10° WNW 20:00:23 22° NW 20:00:23 22° NW visible
19 Nov 7.6 18:42:40 10° NW 18:47:05 41° NNE 18:47:45 39° NE visible
19 Nov 10.0 20:24:51 10° WNW 20:25:25 13° WNW 20:25:25 13° WNW visible
20 Nov 8.1 17:26:26 10° WNW 17:30:35 31° N 17:34:46 10° ENE visible
20 Nov 7.3 19:08:43 10° WNW 19:12:52 61° N 19:12:52 61° N visible
